Airfield :
LOGIN :

Register | Disclaimer

   EN    FR    IT 

 










Legend :    VFR   Marginal VFR   IFR   Intensive IFR   Very Intensive IFR
Visi :
Ceiling :
>= 8 km
>= 3000ft
5 to 8 km
1000 to 3000 ft
1500m to 5 km
500 to 1000 ft
800 to 1500m
200 to 500 ft
< 800m
< 200 ft
Symbols :   Thunderstorms  Fog  Heavy snow  Heavy precipitations  Wind > 20 kt
SIGMETs :     Misc.  Thunderstorms  Icing  Turbulence  Mountain Waves  Volcanic Ashes







- Airport Elevation : 49 ft
- IATA code : AOI


LIPY - Ancona Falconara

CURRENT METAR :
  • 241550Z 36003KT 310V020 CAVOK 18/04 Q1018

EXPIRED METARs :
  • 241450Z 03004KT 360V060 CAVOK 17/05 Q1019
  • 241350Z 03007KT CAVOK 17/07 Q1019

TAF TAF LIPY
Valid from the 24 at 12:00 until the 25 at 12:00 UTC


241100Z 2412/2512 35010KT CAVOK
BECMG 2416/2418 VRB05KT
No reported NOTAMs for that airfield.



MET'MAP, your aeronautical weather chart ! - Copyright ORBIFLY December 2007 - Disclaimer

ORBIFLY MET'MAP TEAM :

Programming & Development : Alexandra Zaïnal
Concept & Development : Baudouin d'Aumeries
Co-Development & Prog : Marc-Olivier Méhu
Technical & hardware support : Manuel Goepfert

Contact : metmap@orbifly.com




SOURCES & CREDITS :

   NOAA